Regional Weather Roundup
Issued by NWS Northern Indiana

Home | Current Version | Previous Version | Text Only | Print | Product List | Glossary On
Versions: 1 2 3 4 5 6 7 8 9 10 11 12 13 14 15 16 17 18 19 20 21 22 23 24 25 26 27 28 29 30 31 32 33 34 35 36 37 38 39 40 41 42 43 44 45 46 47 48 49 50
000
ASUS43 KIWX 012010
RWRIWX

KIWX WEATHER ROUNDUP
NATIONAL WEATHER SERVICE NORTHERN INDIANA
400 PM EDT TUE SEP 01 2015

NOTE: "FAIR" INDICATES FEW OR NO CLOUDS BELOW 12,000 FEET WITH NO
SIGNIFICANT WEATHER AND/OR OBSTRUCTIONS TO VISIBILITY.

* THESE STATIONS ARE NOT UNDER NWS QUALITY CONTROL. THEY ALSO MAY NOT
  REPORT WEATHER SUCH AS PRECIPITATION OR FOG.

INZ001>027-012100-
NORTHERN INDIANA

CITY           SKY/WX    TMP DP  RH WIND       PRES   REMARKS
GARY*          MOSUNNY   86  68  54 SW12      30.04F
VALPARAISO     MOSUNNY   85  68  56 SW10      30.05F
MICHIGAN CITY* MOSUNNY   82  68  61 SW10      30.05S
LAPORTE*       MOSUNNY   86  73  64 SW12      30.06F
KNOX*          SUNNY     84  64  51 S6        30.04F
SOUTH BEND     MOSUNNY   85  71  63 S8        30.05F
ELKHART*       PTSUNNY   77  70  78 CALM      30.06F
GOSHEN         MOSUNNY   86  70  58 SW14      30.05F
MONTICELLO*    SUNNY     84  69  60 S3        30.06F
LOGANSPORT*    PTSUNNY   82  61  47 SW8       30.08S
ROCHESTER*     MOSUNNY   88  70  55 S9        30.07F
WARSAW*        SUNNY     86  68  54 W9        30.06F
ANGOLA*        MOSUNNY   88  72  58 SW6       30.06F
FORT WAYNE     MOSUNNY   83  71  67 W13       30.08F
HUNTINGTON*    PTSUNNY   83  69  63 SW10      30.07F
PERU/GRISSOM   MOSUNNY   87  68  53 SW12G17   30.06F
MARION*        PTSUNNY   72  61  68 S5        30.10F

$$
INZ028>050-012100-
CENTRAL INDIANA

CITY           SKY/WX    TMP DP  RH WIND       PRES   REMARKS
LAFAYETTE      MOSUNNY   86  67  52 SW10      30.06F
KOKOMO*        MOSUNNY   84  70  61 SW10      30.08F
MUNCIE*        LGT RAIN  73  64  73 W3        30.11F
INDIANAPOLIS   PTSUNNY   86  65  49 W8        30.10F

$$
MIZ043>046-050>051-056>058-064>065-071>073-077>080-012100-
SOUTHWEST LOWER MICHIGAN

CITY           SKY/WX    TMP DP  RH WIND       PRES   REMARKS
BATTLE CREEK   MOSUNNY   88  69  53 SW9       30.06F
BENTON HARBOR  MOSUNNY   84  66  54 SW10      30.03F
COLDWATER*     MOSUNNY   85  69  59 SW6       30.06F
HILLSDALE*     SUNNY     87  65  47 SW7       30.08F
HOLLAND        SUNNY     87  73  62 SW10      30.03F
GRAND RAPIDS   MOSUNNY   87  70  56 SW8       30.02F
KALAMAZOO      MOSUNNY   87  69  54 S9        30.04F
STURGIS*       SUNNY     79  66  65 SE6       30.06F
THREE RIVERS*  PTSUNNY   87  70  57 S9        30.04F

$$
OHZ001>008-015>018-024>025-012100-
NORTHWEST OHIO

CITY           SKY/WX    TMP DP  RH WIND       PRES   REMARKS
WAUSEON*       FAIR      88  70  55 VRB7G15   30.06F
DEFIANCE       MOSUNNY   87  67  51 SW7       30.06F
FINDLAY        MOSUNNY   87  67  51 W8        30.06F
TOLEDO EXPRESS MOSUNNY   87  66  49 SW8       30.05F
TOLEDO METCALF MOSUNNY   88  64  44 W10       30.06F
LIMA           MOSUNNY   85  67  54 CALM      30.08F

$$
AND FOR LAKE MICHIGAN COASTAL AND OPEN LAKE BUOY OBSERVATIONS

STATION/POSITION TEMP    WIND        PRES    VSBY  WAVE
                 AIR SEA DIR/SP/G                  HT/PER
                 (F)     (DEG/KT/KT) (MB)    (MI)  (FT/S)
CALUMET HARBOR    83     210/  7/ 14   N/A
MICHIGAN CITY     79     200/ 12/ 13   N/A
BURNS HARBOR      81     240/ 12/ 15 1017.6F
SAINT JOSEPH      78     200/  6/  7 1017.3F
SOUTH LAKE BUOY   73 70  170/ 12/ 14 1015.5F         1/ 3
4 MI NW BRIDGMAN  75 73  280/  6/  6   N/A           1/ 3
MICHIGAN CITY     77 73  210/  4/  6   N/A           1/ 3

$$
&&



USA.gov is the U.S. government's official web portal to all federal, state and local government web resources and services.